DW0805 Weather Reports


Display with metric or nautical units.
time (UTC)temp
F
wind
direction
speed
MPH
gust
MPH
rain 1hr
in
rain 24hr
in
rain mn
in
humidity
%
barometer
mb
20260904071515 60 231 3.0 6.0 0.01 0.13 0.01 92 1003.1
20260904070514 60 224 3.0 7.0 0.01 0.13 0.01 92 1003.3
20260904064515 59 238 3.0 9.0 0.01 0.13 0.01 92 1003.6
20260904063515 59 240 5.0 8.0 0.01 0.13 0.01 91 1003.7
20260904061514 59 316 6.0 12.0 0.00 0.12 0.00 91 1004.0
20260904060515 59 295 9.0 13.0 0.00 0.12 0.00 90 1004.0
20260904051514 60 241 8.0 13.0 0.00 0.12 0.00 87 1004.5
20260904044515 60 264 7.0 13.0 0.00 0.18 0.00 86 1004.7
20260904042514 60 249 8.0 15.0 0.00 0.21 0.00 86 1004.7
20260904041516 60 257 6.0 16.0 0.00 0.26 0.00 86 1004.6
20260904040515 60 238 8.0 16.0 0.00 0.31 0.00 86 1004.4
20260904035515 60 253 10.0 15.0 0.00 0.34 0.00 86 1004.8
20260904034515 60 252 9.0 18.0 0.00 0.35 0.00 86 1004.9
20260904031514 60 244 11.0 16.0 0.00 0.38 0.00 86 1005.3
20260904030515 60 259 12.0 18.0 0.00 0.38 0.00 87 1005.3
20260904023514 61 242 11.0 21.0 0.00 0.38 0.00 87 1005.4
20260904020514 61 282 11.0 17.0 0.00 0.38 0.00 87 1005.7
20260904013514 61 248 13.0 20.0 0.00 0.38 0.00 89 1005.8
20260904012514 61 256 9.0 18.0 0.00 0.38 0.00 89 1005.8
20260904011515 61 262 14.0 20.0 0.00 0.38 0.00 89 1005.8
20260904010514 60 257 9.0 17.0 0.00 0.38 0.00 90 1005.8
20260904002515 61 242 12.0 17.0 0.00 0.38 0.00 90 1006.2
20260904001516 61 253 9.0 16.0 0.00 0.38 0.00 90 1006.3
20260904000515 61 248 7.0 17.0 0.00 0.38 0.00 90 1006.1
20260903235514 61 228 10.0 17.0 0.00 0.38 0.00 89 1005.9
20260903233515 61 252 11.0 16.0 0.00 0.38 0.00 90 1006.3
20260903225515 61 249 12.0 20.0 0.00 0.38 0.00 90 1006.3
20260903224516 61 258 11.0 16.0 0.00 0.38 0.00 90 1006.5
20260903222515 61 240 10.0 16.0 0.01 0.38 0.00 90 1006.5
20260903221510 61 267 10.0 20.0 0.01 0.38 0.00 91 1006.4
20260903220515 61 264 11.0 20.0 0.01 0.38 0.00 90 1006.4
20260903215515 61 260 13.0 18.0 0.01 0.38 0.38 90 1006.4
20260903213514 62 252 9.0 20.0 0.01 0.38 0.38 89 1006.5
20260903211515 62 267 12.0 20.0 0.00 0.37 0.37 88 1006.4
20260903210514 62 262 14.0 21.0 0.00 0.37 0.37 88 1006.4
20260903205515 62 272 13.0 18.0 0.00 0.37 0.37 89 1006.3
20260903203514 62 267 13.0 17.0 0.00 0.37 0.37 89 1006.4
20260903200514 62 248 12.0 22.0 0.00 0.37 0.37 90 1006.3
20260903195514 63 277 13.0 18.0 0.00 0.37 0.37 90 1006.3
20260903194514 63 257 20.0 26.0 0.00 0.37 0.37 89 1006.3
20260903191515 63 256 13.0 21.0 0.00 0.37 0.37 89 1006.0
20260903190514 64 261 16.0 21.0 0.00 0.37 0.37 89 1006.0
20260903185514 64 258 12.0 24.0 0.00 0.37 0.37 89 1005.8
20260903183515 64 261 14.0 25.0 0.00 0.37 0.37 89 1005.9
20260903174515 65 326 11.0 18.0 0.00 0.37 0.37 91 1005.3
20260903173514 65 244 9.0 17.0 0.00 0.37 0.37 91 1005.3
20260903171515 66 255 8.0 16.0 0.00 0.37 0.37 89 1005.2
20260903164514 67 271 9.0 16.0 0.00 0.37 0.37 89 1004.8
20260903161515 69 250 7.0 17.0 0.00 0.37 0.37 88 1005.0
20260903160514 69 320 13.0 21.0 0.00 0.37 0.37 89 1005.1
20260903155514 69 242 8.0 16.0 0.00 0.37 0.37 92 1005.1
20260903153514 67 307 9.0 15.0 0.00 0.37 0.37 94 1005.3
20260903151515 66 260 10.0 16.0 0.01 0.37 0.37 95 1005.2
20260903150516 66 240 9.0 15.0 0.01 0.37 0.37 95 1005.3
20260903145514 66 226 9.0 16.0 0.01 0.37 0.37 96 1005.4
20260903142514 64 213 7.0 12.0 0.00 0.36 0.36 95 1005.6
20260903134514 63 192 7.0 13.0 0.00 0.36 0.36 95 1006.0
20260903132516 63 204 7.0 13.0 0.00 0.36 0.36 95 1006.3
20260903123515 63 217 6.0 13.0 0.00 0.46 0.36 95 1006.7
20260903122516 62 201 8.0 14.0 0.00 0.46 0.36 95 1006.8
20260903120515 62 210 9.0 13.0 0.01 0.46 0.36 95 1007.0
20260903114515 62 196 6.0 12.0 0.01 0.46 0.36 95 1007.2
20260903113515 62 182 5.0 12.0 0.01 0.46 0.36 95 1007.4
20260903110515 61 178 2.0 7.0 0.00 0.45 0.35 95 1007.8
20260903105514 61 166 2.0 7.0 0.01 0.45 0.35 95 1007.9
20260903104515 61 179 4.0 9.0 0.01 0.45 0.35 95 1008.0
20260903103514 61 160 2.0 6.0 0.01 0.45 0.35 95 1008.2
20260903102515 61 35 3.0 8.0 0.02 0.45 0.35 95 1008.3
20260903100515 61 173 3.0 10.0 0.03 0.45 0.35 95 1008.7
20260903095515 61 199 4.0 10.0 0.04 0.44 0.35 95 1009.0
20260903091515 60 200 7.0 10.0 0.05 0.43 0.34 95 1009.6
20260903090514 60 214 4.0 9.0 0.03 0.42 0.32 95 1009.7
20260903085515 60 230 5.0 9.0 0.02 0.40 0.31 95 1009.8
20260903084515 60 234 5.0 12.0 0.03 0.40 0.31 95 1009.9
20260903083515 61 221 7.0 15.0 0.03 0.40 0.31 95 1010.0